Location: Unspecified
(0.0000°N, 0.0000°E)
Time: 18:00:57
(UTC+00:00)

N. Korean satellite - Pass Details

Date: 10 February 2018
Orbit: 459 x 514 km, 97.2° (Epoch: 24 February)

Event Time Altitude Azimuth Distance (km) Brightness Sun altitude
Rises 18:32:11 0° 179° (S) 2,535 10.4 -4.3°
Reaches altitude 10° 18:34:19 10° 185° (S) 1,645 9.5 -4.9°
Maximum altitude 18:37:42 46° 259° (W) 642 7.8 -5.7°
Drops below altitude 10° 18:41:02 10° 333° (NNW) 1,612 9.4 -6.5°
Sets 18:43:06 0° 340° (NNW) 2,477 10.2 -7.0°
